Lille, France

4:34 AM CEST on September 23, 2017 (GMT +0200)
Lesquin

Weather History for LFQQ - March, 2013

Change the Weather History Date:

Tuesday, March 26, 2013

  Actual Average Record
Temperature  
Mean Temperature 34 °F -  
Max Temperature 39 °F 55 °F 64 °F (2003)
Min Temperature 30 °F 40 °F 30 °F (2013)
Degree Days  
Heating Degree Days 30    
Moisture  
Dew Point 20 °F    
Average Humidity 53    
Maximum Humidity 64    
Minimum Humidity 36    
Precipitation  
Precipitation 0.00 in - - ()
Sea Level Pressure  
Sea Level Pressure 29.85 in    
Wind  
Wind Speed 11 mph ()    
Max Wind Speed 15 mph    
Max Gust Speed -    
Visibility 7.0 miles    
Events      
Averages and records for this station are not official NWS values.
T = Trace of Precipitation, MM = Missing Value Source: Averaged Metar Reports

Daily Weather History Graph

Daily Weather History Graph

Search for Another Location

Airport or City:

Trip Planner

Search our weather history database for the weather conditions in past years. The results will help you decide how hot, cold, wet, or windy it might be!

Date:

Astronomy

Mar. 26, 2013 Rise Set
Actual Time 6:36 AM CET 7:10 PM CET
Civil Twilight 6:04 AM CET 7:43 PM CET
Nautical Twilight 5:25 AM CET 8:22 PM CET
Astronomical Twilight 4:44 AM CET 9:03 PM CET
Moon 6:30 PM CET (3/26) 5:48 AM CET (3/26)
Length of Visible Light 13h 39m
Length of Day
12h 33m
Waxing Gibbous, 99% of the Moon is Illuminated
Mar 26
Waxing Gibbous
Mar 27
Full
Apr 3
Last Quarter
Apr 10
New
Apr 18
First Quarter

Hourly Weather History & Observations

Time (CET) Temp. Windchill Dew Point Humidity Pressure Visibility Wind Dir Wind Speed Gust Speed Precip Events Conditions
12:00 AM 33.8 °F 24.8 °F 19.4 °F 56% 29.83 in - ENE 12.7 mph - N/A   Clear
1:00 AM 33 °F - 20 °F 45% 29.86 in 12 mi ENE 13.8 mph - -   Overcast
1:00 AM 33.8 °F 24.3 °F 19.4 °F 56% 29.83 in - ENE 13.8 mph - N/A   Clear
1:30 AM 33.8 °F 24.8 °F 19.4 °F 56% 29.83 in 6.2 mi ENE 12.7 mph - N/A   Unknown
2:00 AM 32.0 °F 22.1 °F 19.4 °F 60% 29.83 in 6.2 mi ENE 13.8 mph - N/A   Unknown
2:30 AM 33.8 °F 24.8 °F 19.4 °F 56% 29.83 in 6.2 mi ENE 12.7 mph - N/A   Unknown
3:00 AM 33.8 °F 24.8 °F 19.4 °F 56% 29.83 in 6.2 mi ENE 12.7 mph - N/A   Unknown
3:30 AM 32.0 °F 23.6 °F 19.4 °F 60% 29.83 in 6.2 mi ENE 10.4 mph - N/A   Unknown
4:00 AM 32.0 °F 23.6 °F 19.4 °F 60% 29.83 in - ENE 10.4 mph - N/A   Clear
5:00 AM 32.0 °F 23.6 °F 19.4 °F 60% 29.83 in - ENE 10.4 mph - N/A   Clear
5:30 AM 32.0 °F 23.6 °F 19.4 °F 60% 29.83 in - ENE 10.4 mph - N/A   Clear
6:00 AM 32.0 °F 23.6 °F 19.4 °F 60% 29.86 in - NE 10.4 mph - N/A   Clear
6:30 AM 32.0 °F 23.0 °F 19.4 °F 60% 29.86 in - ENE 11.5 mph - N/A   Clear
7:00 AM 31 °F - 19 °F 50% 29.88 in 12 mi ENE 11.5 mph - -   Partly Cloudy
7:00 AM 30.2 °F 20.8 °F 19.4 °F 64% 29.86 in - ENE 11.5 mph - N/A   Clear
7:30 AM 30.2 °F 20.8 °F 19.4 °F 64% 29.86 in - ENE 11.5 mph - N/A   Clear
8:00 AM 32.0 °F 22.5 °F 19.4 °F 60% 29.86 in - ENE 12.7 mph - N/A   Clear
8:30 AM 30.2 °F 20.2 °F 17.6 °F 60% 29.86 in - ENE 12.7 mph - N/A   Clear
9:00 AM 32.0 °F 22.1 °F 17.6 °F 55% 29.86 in - ENE 13.8 mph - N/A   Clear
9:30 AM 32.0 °F 21.6 °F 17.6 °F 55% 29.86 in - East 15.0 mph - N/A   Clear
10:00 AM 33.8 °F 24.3 °F 19.4 °F 56% 29.86 in - ENE 13.8 mph - N/A   Clear
10:30 AM 33.8 °F 24.3 °F 19.4 °F 56% 29.86 in - East 13.8 mph - N/A   Clear
11:00 AM 33.8 °F 24.8 °F 19.4 °F 56% 29.86 in - East 12.7 mph - N/A   Clear
11:30 AM 35.6 °F 27.5 °F 19.4 °F 52% 29.86 in - East 11.5 mph - N/A   Clear
12:00 PM 35.6 °F 27.5 °F 19.4 °F 52% 29.86 in - ENE 11.5 mph - N/A   Clear
12:30 PM 37.4 °F 28.5 °F 19.4 °F 48% 29.86 in - ENE 15.0 mph - N/A   Clear
1:00 PM 38 °F - 20 °F 36% 29.87 in 12 mi East 12.7 mph - -   Scattered Clouds
1:00 PM 37.4 °F 28.9 °F 21.2 °F 52% 29.86 in 6.2 mi East 13.8 mph - N/A   Partly Cloudy
1:30 PM 37.4 °F 29.3 °F 19.4 °F 48% 29.86 in 6.2 mi East 12.7 mph - N/A   Partly Cloudy
2:00 PM 37.4 °F 29.8 °F 19.4 °F 48% 29.83 in 6.2 mi ENE 11.5 mph - N/A   Partly Cloudy
2:30 PM 39.2 °F 32.0 °F 21.2 °F 49% 29.83 in 6.2 mi East 11.5 mph - N/A   Partly Cloudy
3:00 PM 39.2 °F 31.2 °F 21.2 °F 49% 29.83 in 6.2 mi ENE 13.8 mph - N/A   Scattered Clouds
3:30 PM 39.2 °F 31.2 °F 21.2 °F 49% 29.83 in 6.2 mi East 13.8 mph - N/A   Scattered Clouds
4:00 PM 39.2 °F 32.0 °F 21.2 °F 49% 29.83 in 6.2 mi East 11.5 mph - N/A   Scattered Clouds
4:30 PM 39.2 °F 32.0 °F 21.2 °F 49% 29.83 in 6.2 mi East 11.5 mph - N/A   Mostly Cloudy
5:00 PM 39.2 °F 31.6 °F 21.2 °F 49% 29.83 in 6.2 mi East 12.7 mph - N/A   Mostly Cloudy
5:30 PM 39.2 °F 31.2 °F 23.0 °F 52% 29.83 in 6.2 mi East 13.8 mph - N/A   Mostly Cloudy
6:00 PM 37.4 °F 28.5 °F 21.2 °F 52% 29.83 in 6.2 mi East 15.0 mph - N/A   Mostly Cloudy
6:30 PM 37.4 °F 28.9 °F 21.2 °F 52% 29.83 in 6.2 mi East 13.8 mph - N/A   Mostly Cloudy
7:00 PM 37 °F - 21 °F 39% 29.86 in 9 mi East 11.5 mph - -   Mostly Cloudy
7:30 PM 37.4 °F 30.8 °F 21.2 °F 52% 29.83 in 6.2 mi East 9.2 mph - N/A   Mostly Cloudy
8:00 PM 37.4 °F 31.4 °F 21.2 °F 52% 29.83 in 6.2 mi East 8.1 mph - N/A   Mostly Cloudy
8:30 PM 37.4 °F 31.4 °F 21.2 °F 52% 29.86 in 6.2 mi ENE 8.1 mph - N/A   Mostly Cloudy
9:00 PM 37.4 °F 31.4 °F 23.0 °F 56% 29.86 in - ENE 8.1 mph - N/A   Clear
9:30 PM 37.4 °F 29.8 °F 21.2 °F 52% 29.86 in - ENE 11.5 mph - N/A   Clear
10:00 PM - - - N/A% - - North - - N/A   Clear
11:00 PM 37.4 °F 31.4 °F 21.2 °F 52% 29.83 in - ENE 8.1 mph - N/A   Clear
11:30 PM 35.6 °F 28.6 °F 19.4 °F 52% 29.83 in - ENE 9.2 mph - N/A   Clear